Weather History for Vacaville, CA

Change the Weather History Date:

Tuesday, April 16, 2013

  Actual Average Record
Temperature  
Mean Temperature 60 °F -  
Max Temperature 69 °F 73 °F 90 °F (1966)
Min Temperature 51 °F 44 °F 31 °F (1967)
Degree Days  
Heating Degree Days 6    
Growing Degree Days 10 (Base 50)    
Moisture  
Dew Point 23 °F    
Average Humidity 27    
Maximum Humidity 41    
Minimum Humidity 15    
Precipitation  
Precipitation 0.00 in - - ()
Sea Level Pressure  
Sea Level Pressure 30.06 in    
Wind  
Wind Speed 14 mph (NNW)    
Max Wind Speed 24 mph    
Max Gust Speed 33 mph    
Visibility 10 miles    
Events      
Averages and records for this station are not official NWS values.
T = Trace of Precipitation, MM = Missing Value Source: NWS Daily Summary

Daily Weather History Graph

Daily Weather History Graph

Search for Another Location

Airport:

Trip Planner

Search our weather history database for the weather conditions in past years. The results will help you decide how hot, cold, wet, or windy it might be!

Date:

Astronomy

Apr. 16, 2013 Rise Set
Actual Time 6:30 AM PDT 7:45 PM PDT
Civil Twilight 6:02 AM PDT 8:13 PM PDT
Nautical Twilight 5:29 AM PDT 8:45 PM PDT
Astronomical Twilight 4:55 AM PDT 9:20 PM PDT
Moon 10:55 AM PDT (4/16) 12:44 AM PDT (4/16)
Length of Visible Light 14h 10m
Length of Day
13h 15m
Waxing Crescent, 34% of the Moon is Illuminated
Apr 16
Waxing Crescent
Apr 18
First Quarter
Apr 25
Full
May 2
Last Quarter
May 9
New

Hourly Weather History & Observations

Time (PDT) Temp. Dew Point Humidity Pressure Visibility Wind Dir Wind Speed Gust Speed Precip Events Conditions
12:53 AM 51.1 °F 28.0 °F 41% 29.94 in 10.0 mi NNW 10.4 mph - N/A   Clear
1:53 AM 51.1 °F 27.0 °F 39% 29.96 in 10.0 mi NNW 12.7 mph 19.6 mph N/A   Clear
2:53 AM 52.0 °F 24.1 °F 34% 29.96 in 10.0 mi North 16.1 mph 24.2 mph N/A   Clear
3:53 AM 51.1 °F 24.1 °F 35% 29.97 in 10.0 mi NNW 12.7 mph 25.3 mph N/A   Clear
5:53 AM 52.0 °F 24.1 °F 34% 30.02 in 10.0 mi North 17.3 mph 28.8 mph N/A   Clear
6:53 AM 52.0 °F 24.1 °F 34% 30.04 in 10.0 mi NNW 16.1 mph 28.8 mph N/A   Clear
7:53 AM 54.0 °F 24.1 °F 31% 30.06 in 10.0 mi NNW 18.4 mph 25.3 mph N/A   Clear
8:53 AM 55.9 °F 24.1 °F 29% 30.08 in 10.0 mi NNW 24.2 mph 33.4 mph N/A   Clear
9:53 AM 57.9 °F 24.1 °F 27% 30.08 in 10.0 mi North 19.6 mph 31.1 mph N/A   Clear
10:53 AM 62.1 °F 25.0 °F 24% 30.08 in 10.0 mi North 12.7 mph 24.2 mph N/A   Clear
11:53 AM 62.1 °F 23.0 °F 22% 30.09 in 10.0 mi North 18.4 mph 27.6 mph N/A   Clear
12:53 PM 64.0 °F 23.0 °F 21% 30.08 in 10.0 mi North 15.0 mph 24.2 mph N/A   Clear
1:53 PM 64.9 °F 21.0 °F 19% 30.07 in 10.0 mi North 17.3 mph 27.6 mph N/A   Clear
2:53 PM 66.9 °F 21.9 °F 18% 30.07 in 10.0 mi NNW 17.3 mph 28.8 mph N/A   Clear
3:53 PM 68.0 °F 21.0 °F 17% 30.06 in 10.0 mi North 8.1 mph 27.6 mph N/A   Clear
4:53 PM 68.0 °F 19.0 °F 15% 30.05 in 10.0 mi North 11.5 mph 17.3 mph N/A   Clear
5:53 PM 66.0 °F 18.0 °F 16% 30.06 in 10.0 mi North 12.7 mph 23.0 mph N/A   Clear
6:53 PM 64.0 °F 19.0 °F 18% 30.07 in 10.0 mi North 12.7 mph 26.5 mph N/A   Clear
7:53 PM 61.0 °F 21.9 °F 22% 30.09 in 10.0 mi North 13.8 mph 23.0 mph N/A   Clear
8:53 PM 57.0 °F 25.0 °F 29% 30.12 in 10.0 mi NNW 8.1 mph - N/A   Clear
9:53 PM 55.9 °F 26.1 °F 32% 30.15 in 10.0 mi NNW 9.2 mph - N/A   Clear
10:53 PM 55.9 °F 25.0 °F 30% 30.16 in 10.0 mi North 10.4 mph - N/A   Clear
11:53 PM 54.0 °F 25.0 °F 33% 30.18 in 10.0 mi NNW 9.2 mph - N/A   Clear